Weather History for KDEN - October, 2010

Change the Weather History Date:

Wednesday, October 13, 2010

  Actual Average Record
Temperature  
Mean Temperature 54 °F 52 °F  
Max Temperature 68 °F 66 °F 85 °F (1962)
Min Temperature 39 °F 38 °F 3 °F (1969)
Degree Days  
Heating Degree Days 11 13  
Month to date heating degree days 75 142  
Since 1 July heating degree days 110 283  
Cooling Degree Days 0 0  
Month to date cooling degree days 8 1  
Year to date cooling degree days 870 765  
Growing Degree Days 2 (Base 50)    
Moisture  
Dew Point 37 °F    
Average Humidity 59    
Maximum Humidity 92    
Minimum Humidity 26    
Precipitation  
Precipitation 0.00 in 0.03 in 2.48 in (2007)
Month to date precipitation 0.48 0.46  
Year to date precipitation 12.09 12.78  
Snow  
Snow 0.00 in - - ()
Month to date snowfall 0  
Since 1 July snowfall 0  
Since 1 September snowfall 0  
Snow Depth 0.00 in    
Sea Level Pressure  
Sea Level Pressure 30.35 in    
Wind  
Wind Speed 7 mph (South)    
Max Wind Speed 14 mph    
Max Gust Speed 16 mph    
Visibility 10 miles    
Events      
T = Trace of Precipitation, MM = Missing Value Source: NWS Daily Summary

Daily Weather History Graph

Daily Weather History Graph

Search for Another Location

Airport or City:

Trip Planner

Search our weather history database for the weather conditions in past years. The results will help you decide how hot, cold, wet, or windy it might be!

Date:

Astronomy

Oct. 13, 2010 Rise Set
Actual Time 7:06 AM MDT 6:22 PM MDT
Civil Twilight 6:39 AM MDT 6:49 PM MDT
Nautical Twilight 6:08 AM MDT 7:20 PM MDT
Astronomical Twilight 5:37 AM MDT 7:51 PM MDT
Moon 1:28 PM MDT (10/13) 11:04 PM MDT (10/13)
Length of Visible Light 12h 09m
Length of Day
11h 15m
Waxing Crescent, 39% of the Moon is Illuminated
Oct 13
Waxing Crescent
Oct 14
First Quarter
Oct 22
Full
Oct 30
Last Quarter
Nov 5
New

Hourly Weather History & Observations

Time (MDT) Temp. Windchill Dew Point Humidity Pressure Visibility Wind Dir Wind Speed Gust Speed Precip Events Conditions
12:53 AM 41.0 °F 38.0 °F 37.9 °F 89% 30.39 in 10.0 mi South 4.6 mph - N/A   Scattered Clouds
1:53 AM 39.0 °F 34.8 °F 36.0 °F 89% 30.39 in 10.0 mi South 5.8 mph - N/A   Scattered Clouds
2:53 AM 39.9 °F 36.7 °F 37.0 °F 89% 30.38 in 10.0 mi South 4.6 mph - N/A   Scattered Clouds
3:53 AM 41.0 °F 39.0 °F 37.0 °F 86% 30.38 in 10.0 mi SSW 3.5 mph - N/A   Scattered Clouds
4:53 AM 42.1 °F 39.2 °F 36.0 °F 79% 30.39 in 10.0 mi SW 4.6 mph - N/A   Scattered Clouds
5:53 AM 42.1 °F 37.7 °F 36.0 °F 79% 30.40 in 10.0 mi SW 6.9 mph - N/A   Partly Cloudy
6:53 AM 41.0 °F 35.2 °F 36.0 °F 82% 30.43 in 10.0 mi SW 9.2 mph - N/A   Partly Cloudy
7:53 AM 42.1 °F 36.1 °F 37.0 °F 82% 30.46 in 10.0 mi WSW 10.4 mph - N/A   Partly Cloudy
8:53 AM 46.0 °F 41.9 °F 39.0 °F 76% 30.47 in 10.0 mi West 8.1 mph - N/A   Partly Cloudy
9:53 AM 50.0 °F - 41.0 °F 71% 30.44 in 6.0 mi West 8.1 mph - N/A   Haze
10:53 AM 54.0 °F - 41.0 °F 62% 30.40 in 8.0 mi Variable 3.5 mph - N/A   Partly Cloudy
11:53 AM 57.9 °F - 39.0 °F 49% 30.38 in 10.0 mi South 5.8 mph - N/A   Scattered Clouds
12:53 PM 60.1 °F - 39.0 °F 46% 30.36 in 10.0 mi Calm Calm - N/A   Scattered Clouds
1:53 PM 63.0 °F - 36.0 °F 37% 30.31 in 10.0 mi ESE 9.2 mph - N/A   Scattered Clouds
2:53 PM 66.0 °F - 34.0 °F 30% 30.28 in 10.0 mi East 9.2 mph - N/A   Scattered Clouds
3:53 PM 64.9 °F - 30.9 °F 28% 30.25 in 10.0 mi ESE 5.8 mph - N/A   Scattered Clouds
4:53 PM 64.9 °F - 28.9 °F 26% 30.25 in 10.0 mi SSE 4.6 mph - N/A   Mostly Cloudy
5:53 PM 61.0 °F - 33.1 °F 35% 30.26 in 10.0 mi ESE 5.8 mph - N/A   Mostly Cloudy
6:53 PM 57.9 °F - 34.0 °F 41% 30.29 in 10.0 mi ENE 4.6 mph - N/A   Mostly Cloudy
7:53 PM 51.1 °F - 36.0 °F 56% 30.32 in 10.0 mi SSE 6.9 mph - N/A   Mostly Cloudy
8:53 PM 48.2 °F - 37.4 °F 66% 30.40 in 10.0 mi South 9.2 mph - N/A   Scattered Clouds
9:53 PM 53.1 °F - 39.0 °F 59% 30.30 in 10.0 mi SSW 9.2 mph - N/A   Scattered Clouds
10:53 PM 48.9 °F - 39.0 °F 69% 30.30 in 10.0 mi SW 11.5 mph - N/A   Partly Cloudy
11:53 PM 48.9 °F - 37.9 °F 66% 30.28 in 10.0 mi WSW 10.4 mph - N/A   Partly Cloudy